AirNav   Air Wisconsin pilot careers
 
 1474 users online  

7B4 Miller Farm Landing Strip
Baltimore, Ohio, USA

GOING TO BALTIMORE?


FAA INFORMATION EFFECTIVE 11 OCTOBER 2018

Location

FAA Identifier: 7B4
Lat/Long: 39-53-04.2290N / 082-35-20.5840W
39-53.070483N / 082-35.343067W
39.8845081 / -82.5890511
(estimated)
Elevation: 930 ft. / 283 m (estimated)
Variation: 05W (1985)
From city: 3 miles NE of BALTIMORE, OH
Time zone: UTC -4 (UTC -5 during Standard Time)
Zip code: 43105

Airport Operations

Airport use: Open to the public
Activation date: 06/1963
Control tower: no
ARTCC: INDIANAPOLIS CENTER
FSS: DAYTON FLIGHT SERVICE STATION
NOTAMs facility: DAY (NOTAM-D service available)
Attendance: SUNRISE-SUNSET
DAYLIGHT HRS ONLY.
Wind indicator: lighted
Segmented circle: no
Lights: AIRPORT LIGHTING AVAILABLE ON REQUEST, CONTACT APRT MGR

Airport Communications

CTAF: 122.9
WX ASOS at LHQ (8 nm S): 118.375 (740-681-1097)
WX ASOS at VTA (10 nm NE): 121.125 (740-522-1066)
WX ASOS at CMH (15 nm NW): 124.6 (614-338-4083)
WX AWOS-3 at LCK (16 nm W): PHONE 614-492-2441

Nearby radio navigation aids

VOR radial/distance  VOR name  Freq  Var
APEr186/16.0APPLETON VORTAC116.7006W
XUBr045/(28.0)YELLOW BUD VOR112.5005W
ZZVr270/32.2ZANESVILLE VOR/DME114.9506W

 
NDB name  Hdg/Dist  Freq  Var  ID
PICKL096/11.437607WLC .-.. -.-.

Airport Services

Parking: hangars
Airframe service: NONE
Powerplant service: NONE

Runway Information

Runway 9/27

Dimensions: 3250 x 50 ft. / 991 x 15 m
Surface: turf, in good condition
Runway edge lights: non-standard
NSTD LIRL; RY ENDS LGTD WITH SPLIT RED & GREEN LGTS & DSPLD THLDS LGDT WITH 1 SPLIT RED & GREEN LGT EACH SIDE OF RY.
RUNWAY 9  RUNWAY 27
Traffic pattern: leftleft
Displaced threshold: 270 ft.
09/27 DSPLCD THLDS MARKED WITH GREEN LGT ATOP YELLOW CONE.
275 ft.
Obstructions: 8 ft. crops
RWY 09 APCH SLOPE 0:1 TO DSPLCD THLD DUE TO +8 FT CROPS 50 FT R & L AT DSPLCD THLD
13 ft. trees, 115 ft. right of centerline
RWY 27 APCH SLOPE 0:1 TO DSPLCD THLD DUE TO +8 FT CROPS 50 FT R & L AT DSPLCD THLD

Airport Ownership and Management from official FAA records

Ownership: Privately-owned
Owner: EDWARD MILLER
455 STEMEN RD NW
BALTIMORE, OH 43105
Phone 614-862-8129
Manager: CLARENCE "BUTCH" PRICE
155 STEMEN RD. NW
BALTIMORE, OH 43105
Phone (740) 862-8422
ADDL CONTACT BUTCH.NANCY@AVOLVE.NET

Airport Operational Statistics

Aircraft based on the field: 2
Single engine airplanes: 2
    
Aircraft operations: avg 29/month *
86% local general aviation
14% transient general aviation
* for 12-month period ending 27 May 2017

Additional Remarks

NO STUDENT OPNS.
RWY 27 +6 TO +13 FT BRUSH/TREES ON RWY END 45 R TO 125 R
OCCASIONAL R/C ACFT OPERATING FM APRT, CTAF MONITORED, OVERFLY FIELD TO ENTER TRAFFIC PATTERN

Instrument Procedures

There are no published instrument procedures at 7B4.

Some nearby airports with instrument procedures:

KLHQ - Fairfield County Airport (8 nm S)
KVTA - Newark-Heath Airport (10 nm NE)
KCMH - John Glenn Columbus International Airport (15 nm NW)
KLCK - Rickenbacker International Airport (16 nm W)
I86 - Perry County Airport (21 nm SE)
 
Loc | Ops | Rwys | IFR | FBO | Links
Com | Nav | Svcs | Stats | Notes


 
Area around 7B4 (Miller Farm Landing Strip)
 
Road maps at: MapQuest Bing Google
 
Aerial photo
WARNING: Photo may not be current or correct
Aerial photo of 7B4 (Miller Farm Landing Strip)
Photo by Denny Cox
Photo taken 04-Sep-2006
looking east

Do you have a better or more recent aerial photo of Miller Farm Landing Strip that you would like to share? If so, please send us your photo.

 
Sectional chart

 
Airport distance calculator
Flying to Miller Farm Landing Strip? Find the distance to fly.

From to 7B4

Sunrise and sunset
Times for 18-Oct-2018
 Local
(UTC-4)
 Zulu
(UTC)
Morning civil twilight07:1811:18
Sunrise07:4511:45
Sunset18:4622:46
Evening civil twilight19:1423:14

Current date and time
Zulu (UTC)  18-Oct-2018 18:38:08
Local (UTC-4)  18-Oct-2018 14:38:08
 
METAR
KLHQ 
9nm SW 
181753Z AUTO 00000KT 10SM CLR 11/M02 A3051 RMK AO2 SLP335 T01061017 10106 21017 58013
KVTA 
10nm NE 
181754Z AUTO 30007KT 10SM CLR 11/M02 A3049 RMK AO2 SLP331 T01111017 10111 21011 58014
KCMH 
15nm NW 
181751Z 00000KT 10SM CLR 11/M04 A3051 RMK AO2 SLP335 T01061044 10106 20011 58012
KLCK 
16nm W 
181815Z AUTO 00000KT 10SM CLR 10/M02 A3049 RMK AO2 T00971025
TAF
KCMH 
15nm NW 
181731Z 1818/1918 26004KT P6SM SKC FM182300 24003KT P6SM SKC FM191400 20009KT P6SM SKC
KLCK 
16nm W 
181731Z 1818/1918 26004KT P6SM SKC FM182300 00000KT P6SM SKC FM191400 20009KT P6SM SKC
NOTAMs
Click for the latest NOTAMs
NOTAMs are issued by the DoD/FAA and will open in a separate window not controlled by AirNav.

 

 
 

Would you like to see your business listed on this page?

 If your business provides an interesting product or service to pilots, flight crews, aircraft, or users of the Miller Farm Landing Strip, you should consider listing it here.  To start the listing process, click on the button below
 
Add a business
 

Other Pages about Miller Farm Landing Strip

Update a link
 
Copyright © AirNav, LLC. All rights reserved. Privacy Policy  Contact